Tracking 30995 objects as of 5-Jul-2025
HD Live streaming from Space Station
objects crossing your sky now

TOS R/B

Track TOS R/B now!


NORAD ID: 22797
Int'l Code: 1993-058D
Perigee: 361.3 km
Apogee: 37,939.5 km
Inclination: 14.7 °
Period: 676.3 minutes
Semi major axis: 25521 km
RCS: 9.198 m2 (large)
Launch date: September 12, 1993
Source: United States (US)
Launch site: AIR FORCE EASTERN TEST RANGE (AFETR)

Note: This is a ROCKET BODY
Your satellite tracking list
PHOBOS-GRUNT
SUOMI NPP
Track 2 satellite(s)




NASA's NSSDC Master Catalog

Two Line Element Set (TLE):
1 22797U 93058D   25185.80826528  .00000241  00000-0  37450-3 0  9991
2 22797  14.6601 193.3945 7362103 207.7552  76.9851  2.12934449240988
Source of the keplerian elements: AFSPC